Date String (YYYY-MM-DD hh:mm:ss) UTC,Instrument flags,Ambient pressure (hPa),Sample flow (lpm),Bypass flow (lpm),Sample temperature (°C),Ambient temperature (°C),ASC tube jacket temperature (°C),LED temperature (°C),Box temperature (°C),Sample RH (%),Span deviation,Mass concentration (μg/m³),Mass concentration (μg/m³),Mass concentration (μg/m³)
DateTimeUTC,F1_M11,P_M11,Q1_M11,Q2_M11,T1_M11,T2_M11,T3_M11,T4_M11,T5_M11,U1_M11,ZSPAN_M11,X0_M11,X2_M11,X1_M11
2022-09-16 20:00:00,,0824.3,5.00,0.00,29.9,26.7,00.0,38.5,31.7,18.7,0000.0,0007.54,0003.81,0003.36
2022-09-16 20:01:00,,0824.1,5.00,0.00,29.9,26.7,00.0,38.4,31.7,18.9,0000.0,0007.30,0003.76,0003.33
2022-09-16 20:02:00,,0824.2,5.01,0.00,29.8,26.9,00.0,38.4,31.5,18.9,0000.0,0006.93,0003.74,0003.30
2022-09-16 20:03:00,,0824.2,4.99,0.00,29.7,27.2,00.0,38.4,31.4,19.0,0000.0,0006.88,0003.72,0003.27
2022-09-16 20:04:00,,0824.2,5.00,0.00,29.7,27.5,00.0,38.4,31.4,19.3,0000.0,0006.68,0003.64,0003.22
2022-09-16 20:05:00,,0824.2,5.00,0.00,29.7,27.8,00.0,38.4,31.5,19.3,0000.0,0006.33,0003.53,0003.15
2022-09-16 20:06:00,,0824.1,5.00,0.00,29.7,28.0,00.0,38.4,31.6,18.9,0000.0,0005.58,0003.42,0003.09
2022-09-16 20:07:00,,0824.1,5.00,0.00,29.8,28.2,00.0,38.4,31.6,18.8,0000.0,0005.87,0003.32,0002.98
2022-09-16 20:08:00,,0824.1,5.00,0.00,29.8,28.4,00.0,38.4,31.7,18.6,0000.0,0007.76,0003.22,0002.87
2022-09-16 20:09:00,,0824.1,5.01,0.00,29.8,28.6,00.0,38.4,31.8,18.8,0000.0,0007.52,0003.10,0002.74
2022-09-16 20:10:00,,0824.1,4.99,0.00,29.9,28.7,00.0,38.4,31.8,18.7,0000.0,0007.27,0002.94,0002.63
2022-09-16 20:11:00,,0824.1,5.00,0.00,29.9,28.8,00.0,38.5,31.9,18.3,0000.0,0007.10,0002.89,0002.62
2022-09-16 20:12:00,,0824.1,5.01,0.00,29.9,28.1,00.0,38.5,31.9,18.2,0000.0,0007.31,0002.88,0002.62
2022-09-16 20:13:00,,0824.1,5.00,0.00,29.9,26.8,00.0,38.5,31.7,18.5,0000.0,0007.67,0002.84,0002.62
2022-09-16 20:14:00,,0824.0,5.00,0.00,29.9,26.5,00.0,38.4,31.7,18.6,0000.0,0007.58,0002.81,0002.62
2022-09-16 20:15:00,,0824.0,5.00,0.00,29.8,26.7,00.0,38.4,31.5,19.5,0000.0,0007.69,0002.85,0002.65
2022-09-16 20:16:00,,0824.0,5.01,0.00,29.7,27.1,00.0,38.4,31.4,19.4,0000.0,0007.75,0002.88,0002.67
2022-09-16 20:17:00,,0824.0,4.99,0.00,29.7,27.4,00.0,38.4,31.4,19.3,0000.0,0007.91,0002.94,0002.70
2022-09-16 20:18:00,,0824.0,5.01,0.00,29.7,27.7,00.0,38.4,31.5,19.1,0000.0,0008.11,0003.02,0002.72
2022-09-16 20:19:00,,0824.1,4.99,0.00,29.7,27.9,00.0,38.4,31.5,19.1,0000.0,0006.94,0003.06,0002.73
2022-09-16 20:20:00,,0824.1,5.01,0.00,29.7,28.2,00.0,38.4,31.6,19.6,0000.0,0007.14,0003.13,0002.78
2022-09-16 20:21:00,,0824.1,4.99,0.00,29.8,28.4,00.0,38.4,31.7,20.0,0000.0,0007.36,0003.19,0002.85
2022-09-16 20:22:00,,0824.1,5.02,0.00,29.8,28.6,00.0,38.4,31.7,19.6,0000.0,0007.93,0003.22,0002.90
2022-09-16 20:23:00,,0824.1,5.00,0.00,29.8,28.7,00.0,38.4,31.7,19.1,0000.0,0008.05,0003.25,0002.91
2022-09-16 20:24:00,,0824.1,4.99,0.00,29.9,28.8,00.0,38.5,31.8,19.0,0000.0,0008.17,0003.28,0002.92
2022-09-16 20:25:00,,0824.1,5.01,0.00,29.9,28.5,00.0,38.5,31.9,18.9,0000.0,0008.19,0003.28,0002.92
2022-09-16 20:26:00,,0824.1,5.00,0.00,29.9,27.2,00.0,38.5,31.7,18.9,0000.0,0008.14,0003.27,0002.91
2022-09-16 20:27:00,,0824.1,4.99,0.00,29.8,26.5,00.0,38.4,31.7,18.9,0000.0,0008.24,0003.26,0002.91
2022-09-16 20:28:00,,0824.1,5.01,0.00,29.8,26.7,00.0,38.4,31.6,18.8,0000.0,0008.36,0003.23,0002.89
2022-09-16 20:29:00,,0824.1,5.01,0.00,29.7,26.9,00.0,38.4,31.4,18.8,0000.0,0007.59,0003.19,0002.88
2022-09-16 20:30:00,,0824.1,4.99,0.00,29.7,27.3,00.0,38.3,31.4,19.1,0000.0,0007.37,0003.19,0002.89
2022-09-16 20:31:00,,0824.2,5.01,0.00,29.7,27.6,00.0,38.3,31.5,18.9,0000.0,0007.24,0003.16,0002.87
2022-09-16 20:32:00,,0824.2,4.98,0.00,29.7,27.9,00.0,38.3,31.5,19.1,0000.0,0007.33,0003.13,0002.83
2022-09-16 20:33:00,,0824.2,5.01,0.00,29.7,28.2,00.0,38.3,31.6,19.4,0000.0,0007.92,0003.13,0002.81
2022-09-16 20:34:00,,0824.3,4.99,0.00,29.7,28.4,00.0,38.4,31.7,19.8,0000.0,0008.04,0003.17,0002.84
2022-09-16 20:35:00,,0824.3,5.00,0.00,29.8,28.5,00.0,38.4,31.7,19.6,0000.0,0007.42,0003.17,0002.86
2022-09-16 20:36:00,,0824.4,5.01,0.00,29.8,28.6,00.0,38.4,31.7,19.6,0000.0,0007.49,0003.21,0002.90
2022-09-16 20:37:00,,0824.3,4.99,0.00,29.9,28.8,00.0,38.4,31.8,19.9,0000.0,0007.52,0003.23,0002.93
2022-09-16 20:38:00,,0824.3,4.99,0.00,29.9,28.9,00.0,38.5,31.9,19.8,0000.0,0007.80,0003.28,0002.95
2022-09-16 20:39:00,,0824.4,5.00,0.00,29.9,28.9,00.0,38.5,31.9,19.7,0000.0,0007.85,0003.31,0003.00
2022-09-16 20:40:00,,0824.4,5.01,0.00,30.0,27.9,00.0,38.5,31.9,19.8,0000.0,0008.24,0003.37,0003.05
2022-09-16 20:41:00,,0824.4,5.00,0.00,29.9,26.7,00.0,38.5,31.7,20.0,0000.0,0008.64,0003.42,0003.10
2022-09-16 20:42:00,,0824.5,5.00,0.00,29.9,26.6,00.0,38.4,31.7,20.6,0000.0,0009.23,0003.47,0003.13
2022-09-16 20:43:00,,0824.4,5.00,0.00,29.8,26.9,00.0,38.4,31.5,20.0,0000.0,0009.50,0003.49,0003.15
2022-09-16 20:44:00,,0824.4,5.00,0.00,29.7,27.2,00.0,38.4,31.5,19.8,0000.0,0008.59,0003.49,0003.16
2022-09-16 20:45:00,,0824.5,5.00,0.00,29.7,27.6,00.0,38.4,31.5,19.7,0000.0,0008.51,0003.47,0003.16
2022-09-16 20:46:00,,0824.5,4.99,0.00,29.7,27.9,00.0,38.4,31.5,20.0,0000.0,0009.02,0003.48,0003.17
2022-09-16 20:47:00,,0824.4,5.02,0.00,29.7,28.1,00.0,38.4,31.6,20.2,0000.0,0009.00,0003.48,0003.17
2022-09-16 20:48:00,,0824.5,4.99,0.00,29.8,28.3,00.0,38.4,31.6,19.6,0000.0,0009.00,0003.49,0003.18
2022-09-16 20:49:00,,0824.6,5.01,0.00,29.8,28.5,00.0,38.4,31.7,19.4,0000.0,0008.59,0003.46,0003.18
2022-09-16 20:50:00,,0824.7,5.00,0.00,29.8,28.6,00.0,38.4,31.8,19.7,0000.0,0008.43,0003.45,0003.17
2022-09-16 20:51:00,,0824.8,5.00,0.00,29.9,28.8,00.0,38.4,31.8,19.2,0000.0,0008.11,0003.42,0003.16
2022-09-16 20:52:00,,0824.5,5.00,0.00,29.9,28.9,00.0,38.5,31.9,18.9,0000.0,0007.73,0003.41,0003.14
2022-09-16 20:53:00,,0824.6,4.99,0.00,29.9,28.8,00.0,38.5,31.9,19.0,0000.0,0006.88,0003.38,0003.14
2022-09-16 20:54:00,,0824.7,5.01,0.00,29.9,27.6,00.0,38.5,31.8,19.2,0000.0,0006.90,0003.37,0003.12
2022-09-16 20:55:00,,0824.6,5.00,0.00,29.9,26.5,00.0,38.5,31.7,19.0,0000.0,0007.19,0003.36,0003.08
2022-09-16 20:56:00,,0824.6,5.00,0.00,29.8,26.5,00.0,38.4,31.6,19.0,0000.0,0007.83,0003.38,0003.06
2022-09-16 20:57:00,,0824.6,4.99,0.00,29.8,26.8,00.0,38.4,31.5,19.4,0000.0,0007.67,0003.38,0003.03
2022-09-16 20:58:00,,0824.6,4.99,0.00,29.7,27.2,00.0,38.4,31.4,19.4,0000.0,0008.80,0003.41,0003.02
2022-09-16 20:59:00,,0824.6,5.00,0.00,29.7,27.5,00.0,38.4,31.5,19.4,0000.0,0008.89,0003.42,0002.99
